Weather Roundup
Issued by NWS Chicago, IL

Home | Current Version | Previous Version | Graphics & Text | Print | Product List | Glossary On
Versions: 1 2 3 4 5 6 7 8 9 10 11 12 13 14 15 16 17 18 19 20 21 22 23 24 25 26 27 28 29 30 31 32 33 34 35 36 37 38 39 40 41 42 43 44 45 46 47 48 49 50
000
NZUS59 KLOT 271910
HRRLOT

CHICAGO AREA WEATHER ROUNDUP
NATIONAL WEATHER SERVICE CHICAGO/ROMEOVILLE IL
100 PM CST SAT DEC 27 2014

NOTE: "FAIR" INDICATES FEW OR NO CLOUDS BELOW 12,000 FEET WITH NO
SIGNIFICANT WEATHER AND/OR OBSTRUCTIONS TO VISIBILITY.

* THESE STATIONS ARE NOT UNDER NWS QUALITY CONTROL. THEY ALSO MAY NOT
  REPORT WEATHER SUCH AS PRECIPITATION OR FOG.

ILZ005-006-012>014-019>023-272000-
NORTHEAST ILLINOIS

CITY           SKY/WX    TMP DP  RH WIND       PRES   REMARKS
OHARE          CLOUDY    38  31  76 W20G30    29.97S
MIDWAY         CLOUDY    41  34  76 W20G28    30.00R
AURORA         CLOUDY    38  30  73 W23       29.99F
LANSING*       DRIZZLE   41  38  90 W18G31    30.01R
JOLIET*        CLOUDY    38  31  78 W13G22    30.02F
WAUKEGAN       CLOUDY    38  31  76 SW14G24   29.93R
DUPAGE AIRPORT CLOUDY    37  31  78 W21G29    30.00S
WHEELING       CLOUDY    39  31  72 W14G23    29.97F
KANKAKEE*      CLOUDY    39  37  90 W18G25    30.04R
MORRIS*        CLOUDY    38  33  81 W15G25    29.99F
LEWIS AIRPORT* CLOUDY    37  32  82 W21G26    30.01F
NORTHERLY IS     N/A     40  33  76 W14         N/A
$$

WIZ051-052-058>065-066-070>072-272000-
SOUTHEAST WISCONSIN

CITY           SKY/WX    TMP DP  RH WIND       PRES   REMARKS
MILWAUKEE      CLOUDY    38  30  73 W21G30    29.90R
KENOSHA*       CLOUDY    39  32  76 W28       29.94R
RACINE*        CLOUDY    39  31  72 W20G28    29.92R
BURLINGTON     CLOUDY    34  29  82 W20G32    29.94S WCI  23
WEST BEND      CLOUDY    36  32  87 SW16G28   29.85S
$$

INZ001>003-010>013-019-020-272000-
NORTHWEST INDIANA

CITY           SKY/WX    TMP DP  RH WIND       PRES   REMARKS
GARY*          CLOUDY    45  39  81 W26G39    29.99R HAZE
MICHIGAN CITY* NOT AVBL
RENSSELAER*    NOT AVBL
VALPARAISO     CLOUDY    48  46  93 SW17      29.97F
$$

LMZ740>746-272000-
SOUTHERN LAKE MICHIGAN

STATION/POSITION TIME  SKY/WX   TEMP WIND        PRES    VSBY
                                AIR  DIR/SP/G
                 (UTC)          (F)  (DEG/KT/KT) (MB)    (MI)
HARRISON CRIB    1900            40  260/ 33/ 41   N/A
BURNHAM HARBOR   1900            40  240/ 16/ 19   N/A
CALUMET HARBOR   1900            41  240/ 14/ 22 1014.7R
BURNS HARBOR     NOT AVBL
MICHIGAN CITY    1900            48  190/ 20/ 24   N/A
$$

ABBREVIATIONS USED IN REMARKS
   TC - TEMPERATURE IN CELSIUS
  WCI - WIND CHILL INDEX
   HX - HEAT INDEX
  VSB - VISIBILITY
$$


USA.gov is the U.S. government's official web portal to all federal, state and local government web resources and services.